Regional Weather Roundup
Issued by NWS

Home | Current Version | Previous Version | Graphics & Text | Print | Product List | Glossary On
Versions: 1 2 3 4 5 6 7 8 9 10 11 12 13 14 15 16 17 18 19 20 21 22 23 24 25 26 27 28 29 30 31 32 33 34 35 36 37 38 39 40 41 42 43 44 45 46 47 48 49 50
000
ASUS43 KLSX 140307
RWRMO

WEATHER SUMMARY FOR MISSOURI
NATIONAL WEATHER SERVICE SPRINGFIELD MO
900 PM CST WED DEC 13 2017

NOTE: "FAIR" INDICATES FEW OR NO CLOUDS BELOW 12,000 FEET WITH NO
       SIGNIFICANT WEATHER AND/OR OBSTRUCTIONS TO VISIBILITY.
       CURRENT SKY AND/OR WEATHER CONDITIONS ARE NOT AVAILABLE FOR
       CHILLICOTHE AND FARMINGTON.

MOZ001>031-035>038-043-044-053-054-140400-
...NORTHERN AND WESTERN MISSOURI...

CITY           SKY/WX    TMP DP  RH WIND       PRES   REMARKS
KANSAS CTY INT CLEAR     40  28  62 N14       29.93R
KANSAS C DTWN  CLEAR     44  28  53 NW13G21   29.93R
LEE`S SUMMIT   CLEAR     43  30  60 N17G24    29.92R
ST JOSEPH      CLEAR     36  28  73 NW9       29.93R WCI  29
CHILLICOTHE      N/A     42  26  53 N12G23    29.89R
KIRKSVILLE     CLOUDY    37  27  67 N16G28    29.86R WCI  28

$$
MOZ066>068-077>081-088>096-101>105-140400-
...SOUTHWEST MISSOURI...

CITY           SKY/WX    TMP DP  RH WIND       PRES   REMARKS
SPRINGFIELD    CLEAR     47  27  45 NW6       29.86R
JOPLIN         CLEAR     42  27  55 NW7       29.90R
BRANSON        CLEAR     48  27  43 CALM      29.86R

$$
MOZ032>034-039>042-045>050-055>058-069>072-140400-
...CENTRAL MISSOURI...

CITY           SKY/WX    TMP DP  RH WIND       PRES   REMARKS
COLUMBIA       CLEAR     43  29  57 NW16      29.83R
JEFFERSON CITY CLEAR     47  29  49 NW18G28   29.83R
ROLLA          CLEAR     46  28  49 NW10G21   29.81R
SEDALIA        CLEAR     44  31  60 N16G28    29.88R
WHITEMAN AFB   CLEAR     43  28  57 N15       29.84R
WARRENSBURG    CLEAR     43  30  61 NW14      29.90R
OSAGE BEACH    CLEAR     48  28  46 NW8       29.85R

$$
MOZ051-052-059>065-140400-
...EAST CENTRAL MISSOURI...

CITY           SKY/WX    TMP DP  RH WIND       PRES   REMARKS
ST LOUIS INTL  PTCLDY    42  30  62 NW20G29   29.77R
SPIRIT OF STL  CLEAR     43  30  60 NW17G31   29.79R
ST CHARLES     MOCLDY    43  29  57 NW14G32   29.79R

$$
MOZ072>076-082>087-097>100-106>115-140400-
...SOUTH CENTRAL AND SOUTHEAST MISSOURI...

CITY           SKY/WX    TMP DP  RH WIND       PRES   REMARKS
CAPE GIRARDEAU PTCLDY    35  24  64 W7        29.75R WCI  29
FARMINGTON     CLEAR     46  28  49 NW9       29.77R
POPLAR BLUFF   CLEAR     49  27  42 W7        29.78R
WEST PLAINS    CLEAR     45  26  47 NW7       29.82R

$$



USA.gov is the U.S. government's official web portal to all federal, state and local government web resources and services.